[[{"header":{"parameterUnit":"m.s-1","parameterCategory":1,"la1":30.2991,"la2":30.254,"lo1":-89.0895,"lo2":-89.0444,"dy":0.0017,"dx":0.0017,"nx":28,"ny":28,"refTime":"2024-12-20T09:00:00:Z","depth":0,"parameterNumber":2,"parameterNumberName":"U-component_of_WINDS"},"data":[0,0,0,0,0,0,0,0,0,0,0,0,0,0,0,0,0,0,0,0,0,0,0,0,0,0,0,0,0,0,0,0,0,0,0,0,0,0,0,0,0,0,0,0,0,0,0,0,0,0,0,0,0,0,0,0,0,0,-0.2167,-0.2167,0,-0.2214,-0.2215,-0.2215,-0.2223,-0.2222,-0.2222,-0.2221,-0.2271,-0.2273,-0.2275,0,0,0,0,0,0,0,0,0,0,0,0,0,-0.2083,-0.2084,-0.2167,-0.2167,-0.2168,-0.2214,-0.2215,-0.2215,-0.2223,-0.2222,-0.2222,-0.2221,-0.2271,-0.2273,-0.2275,0,0,0,0,0,0,0,0,0,0,0,0,0,-0.2124,-0.2085,-0.2167,-0.2177,-0.2178,-0.2214,-0.2215,-0.2216,-0.2223,-0.2222,-0.2222,-0.2221,-0.227,-0.2273,-0.2275,-0.2304,0,0,-0.2283,-0.2284,0,0,0,0,0,0,0,0,-0.2121,-0.2127,-0.2175,-0.2176,-0.2178,-0.2212,-0.2204,-0.2245,-0.2223,-0.2206,-0.2221,-0.2221,-0.2252,-0.2256,-0.2267,-0.2306,-0.2309,-0.2283,-0.2285,-0.2286,-0.2287,0,0,0,0,0,0,0,-0.2119,-0.2125,-0.2185,-0.2176,-0.2177,-0.218,-0.2185,-0.2212,-0.2232,-0.2207,-0.2208,-0.2214,-0.2253,-0.2264,-0.2268,-0.2309,-0.2283,-0.2286,-0.2287,-0.2288,-0.2375,-0.2376,0,0,0,0,0,0,-0.2114,-0.2122,-0.2184,-0.2187,-0.2148,-0.2182,-0.2187,-0.2202,-0.2232,-0.2236,-0.2214,-0.2214,-0.226,-0.2265,-0.227,-0.2306,-0.2286,-0.2289,-0.229,-0.2374,-0.2375,-0.2376,0,0,0,0,0,0,-0.2112,-0.2119,-0.2182,-0.2155,-0.2163,-0.2184,-0.22,-0.2203,-0.2214,-0.2237,-0.2241,-0.2222,-0.226,-0.2266,-0.2295,-0.2308,-0.229,-0.2292,-0.2374,-0.2375,-0.2376,-0.2378,0,0,0,0,0,0,-0.2109,-0.2118,-0.213,-0.2155,-0.2164,-0.2207,-0.22,-0.2204,-0.2218,-0.2218,-0.2245,-0.2249,-0.226,-0.2291,-0.2298,-0.2311,-0.2294,-0.2373,-0.2374,-0.2375,-0.2377,-0.2379,-0.2381,0,0,0,0,0,-0.2106,-0.2129,-0.213,-0.2137,-0.2179,-0.2208,-0.2213,-0.2225,-0.2219,-0.2231,-0.2245,-0.2248,-0.2305,-0.2294,-0.2302,-0.2316,-0.2372,-0.2374,-0.2375,-0.2376,-0.2379,-0.2381,0,0,0,0,0,0,-0.2105,-0.2132,-0.2134,-0.2165,-0.2184,-0.2209,-0.2224,-0.2227,-0.2248,-0.2247,-0.2261,-0.2267,-0.2296,-0.2309,-0.2296,-0.2345,-0.2338,-0.2341,-0.2336,-0.2339,-0.2341,-0.2338,-0.2296,0,0,0,0,0,-0.2108,-0.2128,-0.2151,-0.2177,-0.2186,-0.2203,-0.2216,-0.2223,-0.2243,-0.2252,-0.2268,-0.2288,-0.231,-0.2325,-0.2347,-0.2378,-0.2384,-0.2391,-0.2393,-0.2395,-0.2398,-0.2416,-0.2419,-0.2382,-0.2382,-0.2382,0,0,-0.2115,-0.2132,-0.2145,-0.2177,-0.2192,-0.2214,-0.221,-0.2233,-0.2249,-0.2255,-0.2284,-0.2297,-0.232,-0.235,-0.2365,-0.2362,-0.2409,-0.2397,-0.2398,-0.24,-0.2418,-0.2421,-0.2424,-0.2383,-0.2383,-0.2383,0,0,-0.2138,-0.2153,-0.2176,-0.2191,-0.2214,-0.2226,-0.2231,-0.2255,-0.2264,-0.2293,-0.2298,-0.2317,-0.2355,-0.2372,-0.2385,-0.2414,-0.2417,-0.242,-0.2431,-0.2448,-0.2451,-0.2454,-0.2465,-0.2469,-0.2423,-0.2423,-0.2423,0,-0.2144,-0.2177,-0.2187,-0.221,-0.2224,-0.223,-0.2253,-0.2268,-0.2297,-0.2307,-0.2302,-0.235,-0.2366,-0.2401,-0.2408,-0.2418,-0.2425,-0.2418,-0.245,-0.2453,-0.2455,-0.2466,-0.247,-0.2423,-0.2423,-0.2423,-0.2423,0,-0.2183,-0.2205,-0.2221,-0.2249,-0.2264,-0.2287,-0.2301,-0.2316,-0.2321,-0.2333,-0.2362,-0.2381,-0.2407,-0.2415,-0.2421,-0.2451,-0.2449,-0.2447,-0.244,-0.2459,-0.2469,-0.2473,-0.2424,-0.2424,-0.2423,-0.2423,0,0,-0.2209,-0.2241,-0.2246,-0.2259,-0.2284,-0.2302,-0.2325,-0.235,-0.2362,-0.2382,-0.2402,-0.2433,-0.2432,-0.2447,-0.2454,-0.2469,-0.2492,-0.2466,-0.2467,-0.2471,-0.2526,-0.2528,-0.2532,-0.2493,-0.2494,-0.2495,-0.2524,0,-0.2236,-0.2277,-0.2287,-0.2322,-0.2343,-0.2348,-0.2368,-0.2386,-0.2397,-0.2417,-0.2429,-0.2452,-0.2448,-0.2457,-0.2471,-0.2486,-0.2503,-0.2483,-0.2513,-0.2514,-0.2508,-0.2538,-0.254,-0.2567,-0.2528,-0.2529,-0.253,0,-0.2274,-0.2294,-0.2331,-0.2354,-0.2363,-0.2381,-0.2404,-0.2422,-0.2443,-0.245,-0.2466,-0.2471,-0.2496,-0.2487,-0.2521,-0.2507,-0.252,-0.2528,-0.253,-0.2534,-0.2524,-0.2544,-0.2576,-0.2581,-0.2536,-0.2535,-0.2535,0,-0.229,-0.2326,-0.2353,-0.2363,-0.239,-0.2402,-0.2414,-0.2434,-0.2448,-0.2468,-0.2477,-0.25,-0.2513,-0.2531,-0.2542,-0.2535,-0.2576,-0.2568,-0.2583,-0.2583,-0.2593,-0.2592,-0.2628,-0.2598,-0.2598,-0.2598,-0.2598,0,-0.2321,-0.2343,-0.2361,-0.2377,-0.2403,-0.2414,-0.2439,-0.2451,-0.2468,-0.2487,-0.2492,-0.2511,-0.2525,-0.2545,-0.2554,-0.2581,-0.2586,-0.2593,-0.2596,-0.2594,-0.2593,-0.2603,-0.2602,-0.2599,-0.2599,-0.2599,-0.2599,0,-0.2343,-0.2356,-0.2386,-0.2408,-0.2414,-0.2432,-0.2451,-0.2468,-0.2478,-0.2503,-0.2509,-0.2526,-0.255,-0.2563,-0.2593,-0.2599,-0.263,-0.263,-0.2623,-0.2624,-0.2639,-0.2638,-0.2684,-0.2691,-0.2655,-0.2656,-0.2656,0,-0.2363,-0.238,-0.2404,-0.2417,-0.2429,-0.245,-0.2464,-0.2475,-0.249,-0.2514,-0.2527,-0.2551,-0.2571,-0.2609,-0.2624,-0.2647,-0.2649,-0.2664,-0.2653,-0.265,-0.2651,-0.265,-0.2652,-0.2666,-0.2667,-0.2667,-0.2667,0,-0.2396,-0.2401,-0.2421,-0.2443,-0.246,-0.2478,-0.2496,-0.2506,-0.252,-0.2536,-0.256,-0.2575,-0.2606,-0.263,-0.2654,-0.2666,-0.2669,-0.267,-0.2675,-0.2674,-0.2669,-0.2673,-0.2629,-0.267,-0.2669,-0.2669,-0.2669,-0.2669,-0.2419,-0.2435,-0.2454,-0.2476,-0.249,-0.2506,-0.2523,-0.2535,-0.2556,-0.2581,-0.2586,-0.2611,-0.2631,-0.2663,-0.2676,-0.2696,-0.2694,-0.2701,-0.2703,-0.2705,-0.2706,-0.2665,-0.2701,-0.2701,-0.2701,-0.2701,-0.2701,0,-0.2453,-0.2465,-0.2485,-0.251,-0.2527,-0.2527,-0.2547,-0.2562,-0.2584,-0.2602,-0.2621,-0.2648,-0.2671,-0.2688,-0.2711,-0.2725,-0.2727,-0.2731,-0.273,-0.2733,-0.2706,-0.27,-0.2728,-0.2728,-0.2728,-0.2728,-0.2728,-0.2728,-0.2473,-0.25,-0.2507,-0.2541,-0.2554,-0.2578,-0.259,-0.2605,-0.2619,-0.2649,-0.2668,-0.2679,-0.2696,-0.272,-0.2742,-0.2746,-0.2755,-0.2759,-0.2763,-0.2738,-0.2735,-0.2732,-0.2727,-0.276,-0.276,-0.2789,-0.2789,-0.2789]},{"header":{"parameterUnit":"m.s-1","parameterCategory":1,"la1":30.2991,"la2":30.254,"lo1":-89.0895,"lo2":-89.0444,"dy":0.0017,"dx":0.0017,"nx":28,"ny":28,"refTime":"2024-12-20T09:00:00:Z","depth":0,"parameterNumber":3,"parameterNumberName":"V-component_of_WINDS"},"data":[0,0,0,0,0,0,0,0,0,0,0,0,0,0,0,0,0,0,0,0,0,0,0,0,0,0,0,0,0,0,0,0,0,0,0,0,0,0,0,0,0,0,0,0,0,0,0,0,0,0,0,0,0,0,0,0,0,0,-4.6344,-4.6345,0,-4.6426,-4.6427,-4.6428,-4.6425,-4.6424,-4.6423,-4.6422,-4.65,-4.6503,-4.6506,0,0,0,0,0,0,0,0,0,0,0,0,0,-4.6179,-4.6182,-4.6344,-4.6345,-4.6346,-4.6426,-4.6427,-4.6428,-4.6425,-4.6424,-4.6422,-4.6421,-4.6499,-4.6503,-4.6507,0,0,0,0,0,0,0,0,0,0,0,0,0,-4.6255,-4.6183,-4.6344,-4.6354,-4.6356,-4.6426,-4.6427,-4.6429,-4.6425,-4.6424,-4.6422,-4.642,-4.6498,-4.6503,-4.6507,-4.657,0,0,-4.6522,-4.6524,0,0,0,0,0,0,0,0,-4.6251,-4.6261,-4.6351,-4.6353,-4.6356,-4.6414,-4.6398,-4.6476,-4.6426,-4.6399,-4.6422,-4.642,-4.6472,-4.6479,-4.6498,-4.6574,-4.6577,-4.6522,-4.6525,-4.6527,-4.6528,0,0,0,0,0,0,0,-4.6245,-4.6257,-4.6376,-4.6353,-4.6355,-4.6353,-4.6362,-4.6413,-4.6444,-4.6401,-4.6401,-4.6411,-4.6473,-4.6494,-4.65,-4.6579,-4.6522,-4.6526,-4.6529,-4.6531,-4.6712,-4.6714,0,0,0,0,0,0,-4.6239,-4.6253,-4.6374,-4.6379,-4.6298,-4.6358,-4.6367,-4.6397,-4.6443,-4.6449,-4.6413,-4.6411,-4.6486,-4.6494,-4.6503,-4.6581,-4.6527,-4.6531,-4.6534,-4.671,-4.6712,-4.6714,0,0,0,0,0,0,-4.6235,-4.6249,-4.637,-4.6316,-4.6331,-4.6362,-4.6395,-4.6399,-4.642,-4.6452,-4.6457,-4.6428,-4.6485,-4.6496,-4.6554,-4.6584,-4.6534,-4.6538,-4.6707,-4.671,-4.6713,-4.6737,0,0,0,0,0,0,-4.623,-4.6248,-4.6273,-4.6317,-4.6334,-4.6422,-4.6397,-4.6402,-4.6429,-4.6427,-4.6468,-4.6473,-4.6485,-4.6547,-4.6559,-4.6589,-4.6541,-4.6705,-4.6709,-4.6712,-4.6734,-4.6741,-4.6746,0,0,0,0,0,-4.6224,-4.6275,-4.6275,-4.6289,-4.6367,-4.6424,-4.6433,-4.6448,-4.6431,-4.6456,-4.6477,-4.6472,-4.6578,-4.6553,-4.6566,-4.6599,-4.6703,-4.6708,-4.6712,-4.6731,-4.6739,-4.6746,0,0,0,0,0,0,-4.6232,-4.6281,-4.6281,-4.6348,-4.6382,-4.6423,-4.6455,-4.6455,-4.6493,-4.649,-4.6504,-4.6513,-4.6572,-4.6591,-4.6562,-4.6663,-4.6638,-4.6646,-4.6649,-4.6657,-4.6663,-4.6657,-4.6545,0,0,0,0,0,-4.6242,-4.6286,-4.6326,-4.638,-4.6398,-4.6424,-4.6449,-4.6457,-4.6492,-4.6506,-4.6531,-4.6564,-4.6605,-4.6632,-4.6671,-4.6736,-4.6746,-4.6765,-4.6771,-4.6776,-4.6782,-4.6819,-4.6829,-4.6729,-4.6729,-4.6729,0,0,-4.6262,-4.6294,-4.6321,-4.6383,-4.641,-4.6455,-4.6436,-4.6482,-4.6515,-4.6512,-4.657,-4.659,-4.6627,-4.669,-4.6718,-4.6707,-4.6812,-4.6782,-4.6785,-4.6789,-4.6825,-4.6834,-4.6843,-4.6732,-4.6731,-4.6731,0,0,-4.6322,-4.635,-4.64,-4.6429,-4.6472,-4.6489,-4.6501,-4.6543,-4.6556,-4.6615,-4.6614,-4.6652,-4.6722,-4.6749,-4.6772,-4.6844,-4.6841,-4.6856,-4.6889,-4.6925,-4.6932,-4.694,-4.6966,-4.6975,-4.6862,-4.6862,-4.6862,0,-4.6341,-4.6409,-4.6425,-4.6474,-4.6501,-4.6503,-4.6553,-4.6579,-4.6632,-4.665,-4.6637,-4.6727,-4.6751,-4.6821,-4.6839,-4.6857,-4.6871,-4.6852,-4.693,-4.6938,-4.6944,-4.697,-4.698,-4.6864,-4.6863,-4.6863,-4.6863,0,-4.6431,-4.6479,-4.6513,-4.6567,-4.6598,-4.6647,-4.6669,-4.6699,-4.6704,-4.6722,-4.6782,-4.6812,-4.6859,-4.6876,-4.688,-4.6946,-4.6938,-4.6928,-4.6904,-4.6955,-4.698,-4.6989,-4.6866,-4.6865,-4.6865,-4.6865,0,0,-4.6498,-4.6561,-4.6574,-4.6599,-4.6647,-4.6683,-4.6731,-4.6779,-4.6805,-4.684,-4.6882,-4.6942,-4.6933,-4.6959,-4.6967,-4.6998,-4.7054,-4.6984,-4.6985,-4.6997,-4.713,-4.7139,-4.715,-4.7052,-4.7054,-4.7056,-4.7127,0,-4.6563,-4.6653,-4.6669,-4.6746,-4.679,-4.6793,-4.6835,-4.6869,-4.6887,-4.6926,-4.6945,-4.6988,-4.6972,-4.6989,-4.702,-4.7041,-4.7081,-4.7036,-4.709,-4.7092,-4.7082,-4.7162,-4.7171,-4.7237,-4.7137,-4.7138,-4.7139,0,-4.6652,-4.6693,-4.6776,-4.6819,-4.6838,-4.6877,-4.6922,-4.696,-4.6997,-4.7008,-4.7039,-4.7043,-4.7093,-4.7066,-4.7135,-4.7104,-4.7126,-4.714,-4.7143,-4.7149,-4.7119,-4.7171,-4.7258,-4.7269,-4.7154,-4.7153,-4.7152,0,-4.6694,-4.677,-4.6829,-4.685,-4.6902,-4.693,-4.6952,-4.6988,-4.7016,-4.7055,-4.7074,-4.7117,-4.7141,-4.7174,-4.719,-4.7169,-4.7257,-4.7232,-4.7268,-4.7267,-4.7287,-4.7285,-4.738,-4.73,-4.73,-4.7299,-4.7299,0,-4.6766,-4.6816,-4.6849,-4.6886,-4.6943,-4.696,-4.7015,-4.7037,-4.7069,-4.7109,-4.7113,-4.715,-4.7169,-4.7208,-4.722,-4.7276,-4.7286,-4.7296,-4.7299,-4.7297,-4.7295,-4.7312,-4.7308,-4.7302,-4.7302,-4.7301,-4.7301,0,-4.6822,-4.6847,-4.6912,-4.6957,-4.6969,-4.7009,-4.7047,-4.7082,-4.71,-4.7151,-4.7164,-4.7192,-4.7239,-4.7259,-4.7315,-4.7323,-4.7388,-4.7386,-4.7376,-4.7377,-4.7412,-4.7409,-4.7521,-4.7537,-4.7446,-4.7447,-4.7447,0,-4.6867,-4.6907,-4.6957,-4.6985,-4.701,-4.7055,-4.7084,-4.7103,-4.7133,-4.718,-4.7209,-4.7257,-4.7296,-4.7371,-4.7395,-4.7439,-4.7439,-4.7475,-4.7445,-4.7442,-4.7441,-4.7439,-4.7443,-4.7481,-4.7482,-4.7483,-4.7483,0,-4.6945,-4.6956,-4.6999,-4.7048,-4.7084,-4.7122,-4.7159,-4.7181,-4.7205,-4.7239,-4.7289,-4.7319,-4.7379,-4.7426,-4.7471,-4.7492,-4.7492,-4.7493,-4.7503,-4.7502,-4.7495,-4.75,-4.7392,-4.749,-4.7489,-4.7489,-4.7488,-4.7488,-4.6998,-4.7034,-4.7076,-4.7124,-4.7155,-4.719,-4.7226,-4.725,-4.7293,-4.7344,-4.7352,-4.7405,-4.7442,-4.7503,-4.7526,-4.7567,-4.7557,-4.7573,-4.7577,-4.758,-4.7584,-4.7488,-4.7575,-4.7575,-4.7574,-4.7574,-4.7574,0,-4.7077,-4.7105,-4.7149,-4.7203,-4.7241,-4.724,-4.7281,-4.7313,-4.736,-4.7396,-4.7435,-4.7492,-4.7538,-4.7567,-4.7613,-4.764,-4.7641,-4.7652,-4.765,-4.7655,-4.7589,-4.7576,-4.765,-4.765,-4.765,-4.765,-4.765,-4.765,-4.7123,-4.7184,-4.72,-4.7276,-4.7302,-4.7357,-4.7381,-4.7413,-4.7441,-4.7506,-4.7545,-4.7565,-4.7598,-4.7646,-4.7688,-4.7695,-4.7712,-4.7724,-4.773,-4.7668,-4.766,-4.7652,-4.764,-4.7727,-4.7727,-4.7794,-4.7794,-4.7795]}]]